Weather History for K8D3 - September, 2012

Change the Weather History Date:

Wednesday, September 5, 2012

  Actual Average Record
Temperature  
Mean Temperature 64 °F 64 °F  
Max Temperature 77 °F 76 °F 98 °F (1978)
Min Temperature 51 °F 52 °F 36 °F (1937)
Degree Days  
Heating Degree Days 1 4  
Month to date heating degree days 1 16  
Since 1 July heating degree days 37 59  
Cooling Degree Days 0 3  
Month to date cooling degree days 28 15  
Year to date cooling degree days 690 494  
Growing Degree Days 14 (Base 50)    
Moisture  
Dew Point 47 °F    
Average Humidity 57    
Maximum Humidity 83    
Minimum Humidity 31    
Precipitation  
Precipitation 0.03 in 0.07 in 2.23 in (2004)
Month to date precipitation 0.03 0.34  
Year to date precipitation 14.30 17.08  
Sea Level Pressure  
Sea Level Pressure 29.86 in    
Wind  
Wind Speed 9 mph (NNW)    
Max Wind Speed 21 mph    
Max Gust Speed 25 mph    
T = Trace of Precipitation, MM = Missing Value Source: NWS Daily Summary

Daily Weather History Graph

Daily Weather History Graph

Search for Another Location

Airport or City:

Trip Planner

Search our weather history database for the weather conditions in past years. The results will help you decide how hot, cold, wet, or windy it might be!

Date:

Astronomy

Sep. 05, 2012 Rise Set
Actual Time 6:54 AM CDT 7:57 PM CDT
Civil Twilight 6:24 AM CDT 8:27 PM CDT
Nautical Twilight 5:47 AM CDT 9:03 PM CDT
Astronomical Twilight 5:09 AM CDT 9:42 PM CDT
Moon 10:08 PM CDT (9/5) 12:18 PM CDT (9/5)
Length of Visible Light 14h 03m
Length of Day
13h 02m
Waning Gibbous, 76% of the Moon is Illuminated
Sep 5
Waning Gibbous
Sep 8
Last Quarter
Sep 15
New
Sep 22
First Quarter
Sep 29
Full

Hourly Weather History & Observations

Time (CDT) Temp. Dew Point Humidity Pressure Visibility Wind Dir Wind Speed Gust Speed Precip Events Conditions
12:56 AM 64.9 °F 55.0 °F 70% 29.77 in - North 8.1 mph 21.9 mph N/A   Unknown
1:56 AM 64.0 °F 54.0 °F 70% 29.81 in - North 15.0 mph - 0.01 in   Unknown
2:56 AM 61.0 °F 52.0 °F 72% 29.78 in - ENE 3.5 mph - 0.01 in   Unknown
3:56 AM 60.1 °F 54.0 °F 80% 29.81 in - WNW 6.9 mph - 0.01 in   Unknown
4:56 AM 59.0 °F 53.1 °F 81% 29.84 in - Calm Calm - N/A   Unknown
5:56 AM 57.9 °F 50.0 °F 75% 29.84 in - North 10.4 mph - N/A   Unknown
6:56 AM 55.9 °F 48.0 °F 75% 29.86 in - NNW 9.2 mph - N/A   Unknown
7:56 AM 55.9 °F 46.9 °F 72% 29.89 in - North 6.9 mph - N/A   Unknown
8:56 AM 62.1 °F 45.0 °F 53% 29.90 in - NNW 16.1 mph 21.9 mph N/A   Unknown
9:56 AM 66.0 °F 46.0 °F 48% 29.90 in - North 11.5 mph - N/A   Unknown
10:56 AM 69.1 °F 44.1 °F 40% 29.90 in - NNW 17.3 mph - N/A   Unknown
11:56 AM 71.1 °F 42.1 °F 35% 29.90 in - NW 9.2 mph 18.4 mph N/A   Unknown
12:56 PM 73.0 °F 44.1 °F 35% 29.88 in - NNW 12.7 mph 19.6 mph N/A   Unknown
1:56 PM 73.9 °F 44.1 °F 34% 29.87 in - NW 11.5 mph 23.0 mph N/A   Unknown
2:56 PM 75.0 °F 43.0 °F 32% 29.86 in - NNW 9.2 mph 19.6 mph N/A   Unknown
3:56 PM 75.9 °F 42.1 °F 30% 29.85 in - NW 17.3 mph 25.3 mph N/A   Unknown
4:56 PM 75.9 °F 42.1 °F 30% 29.85 in - North 11.5 mph - N/A   Unknown
5:56 PM 75.0 °F 42.1 °F 31% 29.86 in - NW 12.7 mph - N/A   Unknown
6:56 PM 73.0 °F 43.0 °F 34% 29.86 in - NW 11.5 mph - N/A   Unknown
7:56 PM 66.0 °F 45.0 °F 47% 29.88 in - WNW 4.6 mph - N/A   Unknown
8:56 PM 57.9 °F 46.9 °F 67% 29.89 in - Calm Calm - N/A   Unknown
9:56 PM 57.0 °F 46.9 °F 69% 29.89 in - Calm Calm - N/A   Unknown
10:56 PM 54.0 °F 46.9 °F 77% 29.89 in - WSW 3.5 mph - N/A   Unknown
11:56 PM 52.0 °F 46.9 °F 83% 29.89 in - Calm Calm - N/A   Unknown